• Processing (Info)

  • MPEC 2013-N14 : 2013 MV10

    The following Minor Planet Electronic Circular may be linked-to from your own Web pages, but must not otherwise be redistributed electronically.

    A form allowing access to any MPEC is at the bottom of this page.


    Read MPEC 2013-N13 Read MPEC 2013-N15


    M.P.E.C. 2013-N14                                Issued 2013 July 5, 15:21 UT
    
         The Minor Planet Electronic Circulars contain information on unusual
             minor planets and routine data on comets.  They are published
       on behalf of Commission 20 of the International Astronomical Union by the
              Minor Planet Center, Smithsonian Astrophysical Observatory,
                              Cambridge, MA 02138, U.S.A.
    
                 Prepared using the Tamkin Foundation Computer Network
    
                                  MPC@CFA.HARVARD.EDU
                URL https://www.minorplanetcenter.net/    ISSN 1523-6714
    
                                       2013 MV10
    
    Observations:
         K13M10V* C2013 06 29.54258 19 25 59.875+16 35 22.43         20.9 rLEN014F51
         K13M10V  C2013 06 29.55398 19 25 59.950+16 35 15.77         21.0 iLEN014F51
         K13M10V  C2013 06 29.56523 19 26 00.021+16 35 09.39         20.8 iLEN014F51
         K13M10V _C2013 07 02.43325119 26 47.477+16 05 49.02         20.0 RtEN014568
         K13M10V _C2013 07 02.43450519 26 47.477+16 05 48.16         19.9 RtEN014568
         K13M10V KC2013 07 04.27683219 27 09.76 +15 43 29.5          20.3 VrEN014H21
         K13M10V KC2013 07 04.28574819 27 09.78 +15 43 22.7          20.3 VrEN014H21
         K13M10V KC2013 07 04.29692719 27 09.79 +15 43 13.6          20.1 VrEN014H21
         K13M10V KC2013 07 05.32182 19 27 20.83 +15 29 54.0          21.4 RoEN014291
         K13M10V KC2013 07 05.33000 19 27 20.84 +15 29 47.4          22.0 RoEN014291
    
    Observer details:
    291 LPL/Spacewatch II.  Observer J. V. Scotti.  1.8-m f/2.7 reflector + CCD.
    568 Mauna Kea.  Observers R. J. Wainscoat, M. Micheli, D. Woodworth.  Measurer
        M. Micheli.  3.6-m Canada-France-Hawaii Telescope + CCD.
    F51 Pan-STARRS 1, Haleakala.  Observers N. Primak, A. Schultz, S. Watters,
        T. Goggia, K. Chambers.  Measurer PS1 Science Consortium.  1.8-m
        Ritchey-Chretien + CCD.
    H21 Astronomical Research Observatory, Westfield.  Observer R. Holmes.
        Measurers S. Foglia, L. Buzzi, H. Devore, A. Kostin, T. Linder, T. Lister,
        T. Vorobjov.  0.76-m f/4.0 astrograph + CCD.
    
    Orbital elements:
    2013 MV10                                                Earth MOID = 0.1426 AU
    Epoch 2013 Apr. 18.0 TT = JDT 2456400.5                 MPC
    M 349.97089              (2000.0)            P               Q
    n   0.35458584     Peri.   31.34117     -0.49870903     +0.86415314
    a   1.9769171      Node   208.90592     -0.82126958     -0.49592776
    e   0.4250189      Incl.    8.00272     -0.27713818     -0.08541080
    P   2.78           H   21.8           G   0.15           U   7
    Residuals in seconds of arc
    130629 F51  0.0   0.1+    130702 568  0.3-  0.3-    130705 291  0.4-  0.2-
    130629 F51  0.0   0.1-    130704 H21  0.4+  0.6+    130705 291  0.1-  0.2-
    130629 F51  0.1-  0.0     130704 H21  0.6+  0.6+
    130702 568  0.3-  0.3-    130704 H21  0.7+  0.1+
    
    Ephemeris:
    2013 MV10                a,e,i = 1.98, 0.43, 8                   q = 1.1367
    Date    TT    R. A. (2000) Decl.     Delta      r     Elong.  Phase     V
    2013 06 05    19 03 25.7 +15 25 17   0.2018  1.1553   130.2    42.1    20.3
    ...
    2013 06 20    19 21 17.0 +17 22 34   0.2368  1.1928   134.0    37.8    20.6
    ...
    2013 06 28    19 25 29.7 +16 48 28   0.2587  1.2198   137.5    34.3    20.7
    ...
    2013 07 04    19 27 06.7 +15 47 11   0.2772  1.2429   140.4    31.4    20.8
    2013 07 05    19 27 17.5 +15 34 20   0.2805  1.2469   140.9    31.0    20.8
    2013 07 06    19 27 27.2 +15 20 48   0.2838  1.2510   141.4    30.5    20.9
    ...
    2013 07 12    19 28 09.1 +13 46 28   0.3053  1.2768   144.2    27.7    21.0
    ...
    2013 07 20    19 28 57.2 +11 13 38   0.3386  1.3139   147.3    24.7    21.2
    ...
    2013 08 04    19 32 21.8 +05 50 09   0.4184  1.3899   148.9    22.1    21.7
    
    A. U. Tomatic                (C) Copyright 2013 MPC           M.P.E.C. 2013-N14
    

    Read MPEC 2013-N13 Read MPEC 2013-N15


    MPEC number:

    Enter an MPEC number in one of the following forms:

    • 1997-B01 (the full form)
    • J97B01 (the packed version of the full form)
    • B01 (the abbreviated form)